Wind_Speed
39 47 53 58 73 75 71 68 66 63 59 59 55 58 55 52 50 48 44 39 31 28 27 20 19 26 28 33 34 32 27 33 40 29 35 33 29 33 33 33 33 33 34 36
20 44 43 47 60 74 71 70 65 59 56 60 58 60 58 55 48 45 44 41 34 30 27 21 21 22 22 28 32 32 31 39 33 27 26 27 31 32 34 31 32 33 34 37
12 13 27 46 60 75 73 72 65 59 57 59 55 55 52 53 50 45 42 39 38 34 30 26 25 22 22 24 24 26 30 32 28 27 20 28 28 28 31 34 31 34 36 36
10 14 24 49 63 74 74 69 64 48 38 54 56 55 52 49 52 49 41 37 38 37 35 29 28 25 24 23 23 25 30 28 10 23 19 25 21 29 28 30 32 34 34 34
3 9 8 48 51 67 72 65 63 53 42 38 39 36 50 52 50 47 41 38 38 37 36 33 31 29 27 26 23 27 26 21 19 23 25 26 29 28 29 27 31 32 30 31
8 17 14 24 51 63 63 61 58 56 51 53 44 41 48 52 47 42 44 43 39 37 35 34 33 31 29 31 35 32 22 23 25 23 18 22 25 28 29 32 32 28 28 32
20 14 16 14 55 56 65 64 61 60 57 49 51 43 42 43 41 42 44 44 39 37 35 34 34 29 33 36 36 35 28 24 22 21 24 23 28 25 27 27 26 28 30 33
12 9 24 23 59 51 62 60 63 64 58 43 49 44 38 33 30 40 42 41 39 38 36 35 35 36 38 37 31 26 19 20 24 23 25 25 23 27 27 25 22 24 31 34
11 14 19 29 35 53 61 67 59 56 55 39 48 41 31 33 35 37 40 39 38 38 38 38 40 37 35 33 29 27 22 22 25 25 24 20 22 23 24 26 28 32 34 36
10 0 12 22 42 55 58 54 56 55 50 39 47 42 44 36 47 44 34 37 41 43 42 43 43 36 32 30 28 25 24 24 22 21 25 26 27 27 27 29 32 33 33 34
4 7 8 33 39 56 64 52 52 55 42 37 38 39 34 36 42 46 40 41 46 47 46 42 38 34 26 23 30 31 29 27 29 29 29 29 28 27 28 29 30 32 32 32
5 11 21 26 24 55 59 48 48 61 47 39 33 35 34 36 40 43 46 45 44 44 40 36 33 29 21 31 33 29 28 30 32 30 29 28 27 26 27 28 30 32 33 34
4 6 18 33 18 49 64 43 43 60 49 33 40 41 39 41 43 43 40 35 34 33 33 33 28 28 33 33 30 28 30 32 33 31 28 28 27 27 28 29 31 33 34 35
2 5 15 33 28 33 69 58 50 59 55 32 36 44 48 46 46 45 44 38 33 33 32 35 38 38 36 33 31 31 31 33 33 32 30 29 28 28 28 31 31 32 33 34
7 7 15 29 35 28 66 66 52 56 58 40 43 44 51 48 47 47 47 45 42 38 36 39 37 33 32 33 32 33 34 34 33 31 30 28 26 27 29 29 29 31 32 31
3 7 13 28 33 33 61 68 57 49 29 36 34 36 44 47 55 48 47 45 41 39 36 35 35 33 32 35 36 36 35 34 33 30 26 24 24 26 26 28 26 28 27 23
2 6 19 20 31 26 47 67 44 46 35 46 40 42 28 35 46 52 41 31 31 38 39 37 33 34 35 36 36 35 34 32 29 25 24 23 24 25 27 26 29 30 25 21
11 13 15 14 28 35 45 67 57 51 46 36 40 42 31 22 36 38 33 31 33 34 34 37 37 36 36 35 34 32 28 25 22 23 24 24 24 25 26 28 27 23 23 24
14 8 11 15 18 33 45 48 37 65 41 30 29 43 40 31 28 38 37 35 36 35 35 35 35 34 33 32 27 24 23 22 23 24 23 24 25 26 25 23 22 20 21 22
14 7 12 17 24 26 46 45 49 60 49 37 36 31 60 33 32 38 35 34 30 28 29 31 31 30 27 25 24 23 24 23 24 24 26 26 24 23 24 23 21 22 20 19
9 16 21 24 25 31 52 58 32 22 32 50 23 28 15 13 21 22 21 28 28 27 26 27 28 27 24 23 24 24 23 24 25 26 27 27 25 27 26 23 24 21 21 20
10 16 17 23 25 25 44 36 30 20 20 41 20 15 18 12 10 17 22 31 35 34 31 29 26 25 25 25 24 24 26 27 28 27 27 29 31 28 27 27 23 22 22 23
14 7 18 21 26 17 12 26 6 32 19 24 29 19 16 23 22 27 30 31 30 29 28 28 28 27 27 26 26 28 28 26 27 25 25 23 27 27 28 26 25 25 25 26
12 12 14 17 18 16 22 17 11 25 14 27 25 26 26 23 30 32 30 30 28 29 31 32 31 30 29 29 29 26 26 27 27 28 28 28 28 30 27 26 29 28 26 27
10 13 15 16 16 16 12 11 12 18 18 19 26 30 24 26 29 30 32 31 33 34 33 32 32 31 32 31 37 29 28 29 30 31 31 30 30 34 37 38 33 31 28 30
9 14 18 15 18 18 14 16 15 14 16 23 27 34 28 29 24 26 22 23 22 25 27 23 24 27 27 24 20 24 26 27 29 29 31 31 32 32 32 33 33 33 32 32
Wind_Direction
245 230 231 224 215 218 217 222 222 221 215 218 218 221 222 222 222 221 226 227 229 226 233 235 238 238 236 245 251 256 252 249 249 233 235 230 237 244 249 254 259 266 268 272
284 231 226 226 214 210 212 216 218 220 214 215 214 218 221 218 222 220 222 224 223 225 227 225 228 237 242 242 250 251 250 252 236 204 222 224 233 242 247 263 270 271 274 278
277 232 217 207 204 203 205 211 213 213 216 215 216 219 218 217 221 221 218 220 223 223 225 222 226 233 237 246 252 258 259 266 219 193 233 231 241 248 252 255 263 270 271 274
263 239 231 202 201 199 197 204 204 198 204 212 211 221 219 215 216 218 216 216 222 223 227 224 225 228 238 246 249 254 263 272 259 249 242 226 244 249 258 263 265 266 266 270
250 224 253 201 199 193 193 199 200 190 177 196 206 215 217 214 211 217 216 216 217 222 222 223 224 226 232 243 247 248 250 256 240 242 228 241 252 255 260 267 266 264 270 272
323 239 234 206 191 193 186 186 185 177 182 197 185 209 215 214 215 216 215 217 215 218 219 221 225 228 236 239 237 232 234 240 240 241 242 252 253 256 261 257 261 268 272 275
304 253 215 194 188 194 183 176 178 182 191 195 190 200 215 214 212 211 212 215 215 218 219 221 227 229 233 239 242 230 225 243 256 254 249 251 248 253 259 262 267 269 274 277
305 283 218 200 187 185 187 175 180 186 188 181 184 198 203 202 208 203 208 211 214 217 217 223 226 224 232 242 255 263 248 251 255 257 249 248 257 252 251 257 272 271 276 280
317 313 206 211 198 186 181 186 179 182 185 186 189 201 166 182 184 194 203 207 212 218 218 220 228 227 234 246 250 249 245 245 249 254 255 250 262 265 270 272 272 271 272 277
336 116 185 193 182 177 177 170 187 181 185 184 188 185 177 174 181 187 190 206 213 214 219 222 228 231 231 237 243 245 240 244 245 249 251 255 260 267 267 272 274 276 280 282
253 129 134 175 166 177 174 178 173 179 179 185 182 191 187 179 181 187 187 203 208 216 223 229 232 234 231 232 241 242 245 247 248 249 254 258 262 267 272 275 277 277 280 283
32 164 166 184 195 172 184 170 174 177 166 172 184 179 176 192 192 195 196 199 206 214 224 230 239 239 237 230 230 235 244 249 253 254 258 263 271 277 276 277 279 281 284 287
149 162 189 182 211 176 187 177 173 169 173 180 176 182 178 187 195 205 214 214 214 224 231 233 236 236 233 233 234 237 243 251 255 258 264 269 272 273 274 276 278 282 284 286
326 223 184 185 193 176 182 184 174 169 174 181 180 189 181 186 192 206 210 212 212 214 217 216 217 226 231 234 236 241 245 251 255 257 262 266 268 270 273 274 278 281 283 287
102 131 176 185 194 197 183 184 170 171 178 180 189 180 182 195 192 204 212 214 215 217 217 217 217 223 229 235 239 244 248 250 251 253 255 260 262 266 271 275 279 283 288 288
48 145 143 172 183 189 186 184 179 186 178 180 182 192 187 198 187 196 206 214 221 223 220 223 222 226 228 234 239 241 245 248 250 251 257 263 269 271 273 277 278 287 287 284
212 153 159 160 167 182 186 189 194 195 179 174 186 193 188 203 204 196 205 210 219 226 227 227 225 226 228 233 237 240 242 247 252 258 266 269 270 274 276 276 280 283 281 282
128 119 150 151 155 172 180 187 190 189 178 196 187 197 204 209 195 192 199 214 216 221 221 221 222 224 227 230 234 237 241 248 256 263 266 269 270 273 275 281 282 278 280 285
164 110 155 162 177 175 178 190 185 192 194 194 188 207 217 201 199 191 202 209 208 213 210 211 216 220 223 227 231 237 245 253 260 263 265 266 270 273 276 273 276 277 285 286
145 122 161 169 146 173 179 171 182 190 201 206 218 225 215 189 210 217 213 206 200 198 199 205 210 216 220 226 233 243 250 254 260 261 262 263 272 274 270 271 271 276 276 276
159 137 153 151 152 163 172 182 186 188 176 189 184 177 163 173 198 205 201 193 189 194 201 206 212 219 226 237 244 252 255 258 258 261 266 262 273 274 266 265 273 268 273 280
148 145 147 164 173 177 169 196 217 212 219 198 208 202 210 208 199 204 193 192 196 199 205 213 222 231 241 247 249 254 259 259 259 265 262 267 270 263 264 267 260 267 278 284
97 114 149 161 177 180 160 195 168 200 197 208 227 214 193 186 182 188 197 202 206 211 219 225 234 241 245 246 253 257 260 264 266 259 261 276 273 260 259 259 259 270 278 286
97 86 157 162 160 180 187 193 180 190 163 196 206 206 195 189 191 198 203 208 215 227 234 237 237 239 243 255 257 257 258 263 263 267 272 278 271 263 258 261 263 270 280 285
111 116 112 116 159 170 169 176 192 199 229 201 209 159 176 203 201 203 202 212 218 225 234 244 249 251 252 250 264 257 263 265 268 271 276 277 270 266 259 262 268 271 278 283
125 138 151 134 148 167 181 164 157 148 153 165 155 169 175 187 208 209 201 205 233 240 251 249 250 248 245 242 245 260 265 267 268 269 268 267 266 265 267 264 264 269 274 283
Height
5572 5573 5581 5597 5612 5639 5658 5673 5688 5699 5710 5720 5733 5738 5747 5755 5762 5772 5780 5787 5794 5800 5806 5815 5818 5816 5820 5821 5823 5828 5837 5839 5838 5844 5849 5851 5854 5860 5859 5859 5862 5864 5865 5863
5559 5564 5580 5590 5606 5624 5642 5658 5674 5690 5702 5707 5716 5725 5735 5745 5755 5764 5773 5781 5789 5794 5801 5810 5811 5813 5817 5817 5817 5821 5827 5826 5835 5835 5840 5842 5848 5852 5853 5854 5855 5857 5859 5859
5561 5565 5563 5570 5588 5604 5625 5645 5663 5677 5690 5702 5710 5716 5724 5740 5748 5756 5766 5775 5781 5788 5796 5804 5806 5808 5814 5816 5817 5818 5817 5818 5816 5808 5829 5835 5842 5843 5848 5848 5849 5852 5853 5852
5560 5560 5558 5561 5572 5592 5608 5635 5651 5666 5680 5689 5699 5707 5719 5729 5740 5748 5759 5769 5775 5783 5790 5798 5801 5803 5808 5814 5818 5818 5817 5818 5819 5821 5826 5814 5830 5834 5842 5840 5842 5843 5844 5846
5559 5555 5554 5557 5568 5585 5599 5626 5642 5659 5669 5684 5692 5701 5710 5720 5729 5743 5755 5762 5769 5776 5785 5791 5797 5801 5805 5810 5814 5813 5814 5815 5820 5822 5825 5830 5830 5833 5833 5835 5833 5832 5837 5839
5555 5554 5553 5556 5570 5579 5599 5617 5634 5650 5659 5665 5678 5692 5699 5709 5729 5740 5746 5753 5761 5770 5779 5786 5792 5800 5802 5799 5800 5806 5811 5813 5815 5818 5821 5820 5825 5825 5826 5827 5827 5829 5831 5831
5553 5551 5552 5554 5565 5577 5589 5609 5625 5636 5645 5658 5673 5683 5695 5712 5720 5732 5740 5747 5756 5764 5773 5781 5787 5796 5794 5790 5790 5795 5802 5808 5815 5817 5817 5818 5817 5818 5817 5818 5823 5825 5824 5822
5548 5547 5548 5552 5558 5569 5584 5597 5610 5622 5637 5660 5669 5674 5691 5705 5715 5723 5734 5742 5750 5758 5768 5775 5782 5788 5785 5784 5786 5788 5795 5805 5806 5810 5808 5809 5810 5809 5809 5810 5818 5817 5817 5817
5546 5543 5544 5550 5561 5572 5586 5592 5617 5630 5652 5655 5665 5678 5690 5697 5709 5717 5728 5737 5745 5751 5762 5768 5770 5781 5784 5785 5788 5792 5797 5801 5803 5802 5804 5802 5804 5805 5806 5807 5810 5811 5811 5809
5549 5545 5546 5552 5560 5574 5586 5607 5611 5622 5636 5650 5661 5672 5683 5692 5702 5711 5720 5729 5736 5743 5751 5759 5764 5776 5785 5785 5785 5787 5793 5795 5797 5797 5797 5801 5801 5800 5802 5802 5802 5803 5803 5801
5551 5550 5553 5557 5562 5575 5586 5595 5603 5625 5638 5653 5660 5672 5687 5693 5699 5706 5714 5719 5727 5737 5744 5752 5761 5769 5780 5784 5782 5783 5786 5790 5793 5795 5793 5794 5795 5795 5795 5795 5796 5796 5795 5793
5554 5555 5555 5562 5565 5579 5591 5599 5610 5621 5638 5646 5660 5672 5679 5690 5697 5702 5706 5714 5723 5733 5741 5748 5756 5763 5770 5773 5776 5780 5782 5784 5785 5786 5786 5787 5787 5788 5789 5789 5789 5788 5787 5785
5556 5558 5560 5565 5568 5575 5583 5596 5610 5627 5634 5643 5652 5666 5676 5683 5693 5700 5708 5716 5724 5731 5737 5743 5751 5758 5761 5765 5770 5773 5775 5777 5780 5780 5780 5781 5783 5783 5783 5783 5782 5781 5780 5779
5556 5558 5562 5565 5570 5580 5587 5599 5607 5620 5628 5636 5647 5659 5670 5675 5684 5692 5701 5712 5719 5725 5731 5737 5743 5749 5755 5760 5765 5768 5770 5772 5774 5775 5775 5776 5777 5778 5778 5777 5776 5776 5774 5773
5559 5558 5562 5566 5572 5578 5591 5600 5607 5619 5633 5641 5648 5654 5665 5674 5682 5688 5695 5702 5710 5719 5727 5731 5738 5745 5751 5756 5760 5762 5765 5766 5767 5769 5770 5772 5773 5773 5773 5772 5771 5769 5767 5765
5561 5562 5564 5567 5573 5580 5590 5598 5610 5620 5625 5635 5644 5650 5659 5664 5673 5681 5688 5698 5707 5715 5722 5729 5736 5741 5745 5749 5752 5755 5757 5759 5762 5764 5765 5766 5767 5767 5767 5766 5764 5764 5761 5761
5564 5562 5566 5568 5577 5583 5591 5597 5603 5607 5615 5631 5644 5653 5657 5662 5668 5678 5687 5694 5701 5707 5715 5723 5730 5734 5738 5742 5745 5748 5751 5754 5756 5758 5759 5760 5760 5760 5759 5759 5758 5757 5756 5755
5568 5567 5570 5572 5579 5586 5591 5600 5606 5616 5628 5634 5641 5649 5655 5659 5665 5676 5685 5691 5696 5702 5709 5719 5724 5728 5731 5735 5738 5742 5745 5747 5750 5751 5752 5753 5753 5753 5752 5752 5750 5750 5750 5750
5569 5571 5574 5578 5581 5587 5595 5602 5610 5619 5629 5635 5640 5646 5651 5656 5664 5673 5679 5685 5690 5698 5707 5713 5718 5722 5726 5729 5734 5737 5740 5742 5743 5745 5746 5746 5746 5747 5746 5746 5745 5744 5744 5743
5574 5574 5578 5578 5585 5587 5594 5604 5612 5625 5630 5635 5638 5642 5648 5658 5663 5668 5675 5682 5690 5698 5704 5708 5713 5717 5722 5726 5730 5733 5735 5736 5738 5738 5739 5740 5741 5741 5740 5740 5739 5738 5737 5736
5578 5580 5581 5583 5590 5592 5599 5602 5607 5616 5625 5636 5639 5645 5650 5658 5666 5673 5679 5686 5691 5697 5701 5705 5710 5715 5719 5722 5725 5727 5728 5730 5731 5732 5732 5734 5735 5734 5734 5733 5733 5732 5731 5729
5581 5583 5587 5590 5595 5600 5608 5614 5615 5623 5625 5634 5638 5645 5651 5657 5664 5671 5678 5682 5684 5690 5696 5702 5708 5712 5715 5717 5719 5721 5722 5723 5724 5725 5725 5727 5726 5726 5727 5727 5726 5724 5724 5723
5586 5587 5590 5596 5599 5603 5608 5616 5619 5625 5628 5632 5637 5646 5651 5658 5662 5668 5673 5680 5686 5690 5696 5700 5704 5707 5710 5712 5713 5714 5715 5716 5717 5718 5719 5719 5719 5720 5720 5719 5717 5717 5717 5714
5592 5593 5595 5600 5604 5608 5611 5614 5622 5625 5628 5632 5639 5647 5653 5657 5661 5665 5671 5678 5685 5689 5693 5697 5700 5702 5705 5706 5707 5708 5709 5710 5711 5712 5712 5712 5713 5713 5713 5711 5710 5710 5708 5706
5597 5599 5600 5602 5607 5609 5614 5619 5622 5626 5630 5633 5640 5644 5652 5657 5662 5666 5673 5676 5681 5685 5689 5692 5695 5696 5698 5700 5702 5702 5703 5704 5704 5704 5704 5703 5704 5704 5704 5703 5702 5701 5700 5698
5600 5602 5606 5607 5612 5613 5616 5621 5624 5628 5631 5635 5639 5645 5652 5659 5664 5667 5669 5675 5679 5682 5685 5687 5688 5690 5691 5694 5695 5697 5697 5696 5696 5696 5695 5695 5695 5695 5694 5694 5693 5692 5691 5689